クリステンセン彗星

P/2007 C1 ( Christensen )

English version
Home page
Updated on September 23, 2007

---------------------------------------------------------------------

・ プロフィール

発見日 2007年2月9日
発見光度 18.8等
発見者 E. J. Christensen (Catalina Sky Survey)

・ 写真集

・ 軌道要素

The following orbital elements are taken from MPC 59597:

Epoch 2007 Mar. 1.0 TT = JDT 2454160.5
T 2007 Mar. 5.2544 TT                                   MPC
q   2.050790             (2000.0)            P               Q
n   0.1511220      Peri.   95.6109      -0.8806519      -0.4590396
a   3.490740       Node    57.1157      +0.3603253      -0.8095818
e   0.412506       Incl.    8.0222      +0.3076002      -0.3658688
P   6.52
From 133 observations 2007 Feb. 9-Apr. 12, mean residual 0".5.

・ 光度変化

        m1 = 15.2 + 5 logΔ + 10.0 log r

---------------------------------------------------------------------

軌道要素はMPCのEphemerides and Orbital Elementsに掲載されたものです。
光度グラフはComet for Windowsで作成したものです。

---------------------------------------------------------------------

Copyright(C) Seiichi Yoshida (comet@aerith.net). All rights reserved.